Regional Weather Roundup
Issued by NWS

Home | Current Version | Previous Version | Text Only | Print | Product List | Glossary On
Versions: 1 2 3 4 5 6 7 8 9 10 11 12 13 14 15 16 17 18 19 20 21 22 23 24 25 26 27 28 29 30 31 32 33 34 35 36 37 38 39 40 41 42 43 44 45 46 47 48 49 50
000
ASUS43 KOAX 062110
RWRNE

WEATHER ROUNDUP FOR NEBRASKA
NATIONAL WEATHER SERVICE OMAHA NE
300 PM CST FRI MAR 06 2015

NOTES: SATELLITE DATA IS BEING USED TO AUGMENT CLOUD COVER ABOVE
       12000 FEET.
       "FAIR" INDICATES FEW OR NO CLOUDS BELOW 12,000 FEET WITH NO
       SIGNIFICANT WEATHER AND/OR OBSTRUCTIONS TO VISIBILITY.

  * THESE STATIONS DO NOT REPORT WEATHER SUCH AS RAIN...SNOW OR FOG.

NEZ001>004-019>022-054>056-062200-
NEBRASKA PANHANDLE

CITY           SKY/WX    TMP DP  RH WIND       PRES   REMARKS
SCOTTSBLUFF    SUNNY     56  16  20 W18G25    30.20F
ALLIANCE       SUNNY     57  15  19 NW15G24   30.16F
CHADRON        PTSUNNY   53  24  32 W22       30.16F
KIMBALL        SUNNY     53  16  23 NW14G24   30.20F
SIDNEY         SUNNY     56  16  20 NW16G23   30.20F
$$

NEZ057>060-069>072-079>082-062200-
SOUTHWEST NEBRASKA

CITY           SKY/WX    TMP DP  RH WIND       PRES   REMARKS
NORTH PLATTE   SUNNY     61  15  16 NW21G30   30.15F
IMPERIAL         N/A     60  13  15 W14       30.18F
LEXINGTON      SUNNY     63  18  17 NW14G28   30.15F
MCCOOK         SUNNY     65  15  14 W16       30.17F
OGALLALA       SUNNY     61  17  18 NW9G23    30.16F
$$

NEZ005>010-023>029-035>040-094-062200-
NORTH CENTRAL NEBRASKA

CITY           SKY/WX    TMP DP  RH WIND       PRES   REMARKS
VALENTINE      CLOUDY    57  17  21 W16G25    30.10F
AINSWORTH      CLOUDY    58  16  19 NW15G22   30.10F
BROKEN BOW     SUNNY     63  19  18 NW17      30.12F
O`NEILL        MOSUNNY   58  15  18 W16       30.10F
ORD            SUNNY     61  13  15 W16       30.11F
THEDFORD       MOSUNNY   59  18  19 W12G25    30.13F
$$

NEZ041-046>049-061>064-073>077-083>087-062200-
SOUTH CENTRAL NEBRASKA

CITY           SKY/WX    TMP DP  RH WIND       PRES   REMARKS
GRAND ISLAND   SUNNY     62  15  16 W22       30.14F
AURORA         SUNNY     62  14  15 W13G22    30.13F
HASTINGS       SUNNY     60  16  18 W15G25    30.15F
HEBRON         SUNNY     62   5  10 W12G20    30.17F
HOLDREGE       SUNNY     61  15  16 W21       30.15F
KEARNEY *      SUNNY     61  19  20 NW17G26   30.15F
YORK           SUNNY     61  16  17 W21G26    30.14F
$$

NEZ011>018-030>034-042>045-062200-
NORTHEAST NEBRASKA

CITY           SKY/WX    TMP DP  RH WIND       PRES   REMARKS
NORFOLK        SUNNY     62  15  16 W13G23    30.09F
ALBION         SUNNY     60  12  15 NW13G20   30.11F
BLAIR          SUNNY     62  15  16 W14G22    30.11F
COLUMBUS *     SUNNY     63  16  16 W17G25    30.13F
FREMONT        SUNNY     63  15  15 W14       30.12F
TEKAMAH        MOSUNNY   64  20  18 NW17      30.09F
WAYNE          MOSUNNY   61  18  19 NW13G22   30.10F
$$

NEZ050>053-065>068-078-088>093-062200-
SOUTHEAST NEBRASKA

CITY           SKY/WX    TMP DP  RH WIND       PRES   REMARKS
LINCOLN        SUNNY     63  14  15 W13       30.15F
OMAHA EPPLEY   MOSUNNY   62  16  16 W15G25    30.11F
BEATRICE       SUNNY     62  16  16 W10G18    30.15F
FALLS CITY     SUNNY     62  16  16 SW15      30.18F
NEBRASKA CITY  SUNNY     62   3   9 SW16G25   30.15F
PLATTSMOUTH    SUNNY     60   9  13 W17G25    30.14F
$$

NEZ044-045-051>053-067-062200-
OMAHA AREA

CITY           SKY/WX    TMP DP  RH WIND       PRES   REMARKS
OMAHA EPPLEY   MOSUNNY   62  16  16 W15G25    30.11F
BLAIR          SUNNY     62  15  16 W14G22    30.11F
FREMONT        SUNNY     63  15  15 W14       30.12F
MILLARD        SUNNY     62  17  17 W17       30.11F
OFFUTT AFB     SUNNY     61  17  18 SW13      30.11F
PLATTSMOUTH    SUNNY     60   9  13 W17G25    30.14F
WAHOO          FAIR      63   7  11 W14G24    30.12F
$$



USA.gov is the U.S. government's official web portal to all federal, state and local government web resources and services.